period_start,C,m1,H,J0,J1,J2,J3,J4,J5,JA,JB,JC,JD,JJ,JK,JN,#
2015-06-22 00:23:35,0.00,0.00,0.00,17.31,17.28,16.46,4.17,22.53,1001.38,1873.13,3217.87,3054.04,3328.15,308.53,307.86,0.00,0000 0000 0000 0000 000000
2015-06-22 00:28:36,0.00,0.00,0.00,17.42,17.27,18.23,4.71,25.01,1001.72,2078.85,3569.19,3388.58,3692.91,350.55,349.62,0.03,0000 0000 0000 0000 000000
2015-06-22 00:33:37,0.00,0.00,0.00,17.56,17.27,19.14,4.73,25.00,1001.93,2078.09,3568.02,3387.94,3691.76,350.04,349.25,0.06,0000 0000 0000 0000 000000
2015-06-22 00:38:38,0.00,0.00,0.00,17.78,17.30,19.68,4.70,24.78,1002.02,2078.02,3567.39,3387.26,3691.08,350.36,349.55,0.09,0000 0000 0000 0000 000000
2015-06-22 00:43:39,0.01,0.00,0.00,18.02,17.37,20.03,4.71,24.88,1002.37,2078.00,3566.77,3386.86,3690.31,350.15,348.91,0.12,0000 0000 0000 0000 000000
2015-06-22 00:48:41,0.05,0.00,0.00,18.31,17.47,20.42,4.76,24.77,1002.48,2077.91,3566.01,3386.06,3689.50,350.41,348.75,0.15,0000 0000 0000 0000 000000
2015-06-22 00:53:42,-0.03,0.00,0.00,18.62,17.60,20.82,4.67,24.91,1002.73,2077.17,3565.27,3385.39,3688.55,349.73,347.82,0.18,0000 0000 0000 0000 000000
2015-06-22 00:58:43,0.07,0.00,0.00,18.87,17.77,21.26,4.70,24.87,1002.91,2076.92,3564.25,3384.36,3687.40,350.36,348.16,0.21,0000 0000 0000 0000 000000
2015-06-22 01:03:44,-0.04,0.00,0.00,19.08,17.97,21.70,4.72,24.88,1002.95,2076.11,3563.33,3383.27,3686.03,350.21,347.83,0.23,0000 0000 0000 0000 000000
2015-06-22 01:08:45,-0.00,0.00,0.00,19.36,18.19,22.13,4.66,24.85,1003.05,2075.56,3562.02,3381.94,3684.59,349.59,346.98,0.26,0000 0000 0000 0000 000000
2015-06-22 01:13:47,0.07,0.00,0.00,19.63,18.44,22.54,4.71,24.82,1003.34,2074.89,3560.74,3380.59,3683.02,349.42,346.62,0.29,0000 0000 0000 0000 000000
2015-06-22 01:18:48,0.01,0.00,0.00,19.93,18.70,22.95,4.68,24.82,1003.38,2074.06,3559.40,3379.14,3681.26,350.05,346.71,0.32,0000 0000 0000 0000 000000
2015-06-22 01:23:50,-0.01,0.00,0.00,20.24,18.97,23.35,4.70,24.71,1003.45,2073.18,3557.87,3377.62,3679.52,349.66,345.97,0.35,0000 0000 0000 0000 000000
2015-06-22 01:28:51,0.00,0.00,0.00,20.50,19.26,23.74,4.66,24.63,1003.60,2072.34,3556.43,3376.03,3677.57,349.90,346.13,0.38,0000 0000 0000 0000 000000
2015-06-22 01:33:52,0.02,0.00,0.00,20.76,19.57,24.11,4.67,24.52,1003.84,2071.24,3554.68,3374.19,3675.44,349.70,345.57,0.41,0000 0000 0000 0000 000000
2015-06-22 01:38:54,0.02,0.00,0.00,21.00,19.87,24.48,4.68,24.59,1003.90,2070.29,3553.00,3372.42,3673.41,349.98,345.68,0.44,0000 0000 0000 0000 000000
2015-06-22 01:43:55,0.03,0.00,0.00,21.21,20.18,24.84,4.66,24.59,1003.91,2069.10,3551.11,3370.42,3671.11,349.61,345.33,0.47,0000 0000 0000 0000 000000
2015-06-22 01:48:56,0.01,0.00,0.00,21.46,20.49,25.19,4.66,24.43,1003.92,2068.04,3549.31,3368.54,3669.02,349.82,344.89,0.50,0000 0000 0000 0000 000000
2015-06-22 01:53:58,0.02,0.00,0.00,21.65,20.81,25.53,4.67,24.48,1004.08,2066.97,3547.45,3366.61,3666.81,349.76,344.68,0.53,0000 0000 0000 0000 000000
2015-06-22 01:58:59,-0.03,0.00,0.00,21.80,21.12,25.86,4.74,24.57,1004.38,2065.79,3545.53,3364.60,3664.49,350.07,344.98,0.56,0000 0000 0000 0000 000000
2015-06-22 02:04:00,0.00,0.01,0.00,21.98,21.43,26.18,4.68,24.51,1004.41,2064.61,3543.57,3362.52,3662.18,350.25,344.84,0.59,0000 0000 0000 0000 000000
2015-06-22 02:09:01,0.02,0.01,0.00,22.11,21.74,26.49,4.74,24.49,1004.43,2063.43,3541.55,3360.46,3659.83,350.20,344.75,0.62,0000 0000 0000 0000 000000
2015-06-22 02:14:03,0.02,0.01,0.00,22.29,22.05,26.78,4.67,24.44,1004.45,2062.24,3539.67,3358.39,3657.45,349.68,343.99,0.65,0000 0000 0000 0000 000000
2015-06-22 02:19:04,0.01,0.01,0.00,22.45,22.35,27.05,4.64,24.50,1004.65,2061.01,3537.76,3356.37,3655.12,349.74,344.12,0.67,0000 0000 0000 0000 000000
2015-06-22 02:24:05,-0.01,0.01,0.00,22.70,22.65,27.33,4.69,24.39,1004.90,2059.86,3535.88,3354.42,3652.90,349.85,343.94,0.70,0000 0000 0000 0000 000000
2015-06-22 02:29:06,-0.00,0.01,0.00,22.71,22.94,27.59,4.66,24.26,1004.90,2058.70,3533.87,3352.43,3650.64,350.02,344.03,0.73,0000 0000 0000 0000 000000
2015-06-22 02:34:07,0.00,0.01,0.00,22.69,23.23,27.79,4.63,24.27,1004.91,2057.59,3531.91,3350.48,3648.43,349.75,343.91,0.76,0000 0000 0000 0000 000000
2015-06-22 02:39:09,-0.01,0.01,0.00,22.71,23.48,27.80,4.73,24.33,1004.93,2056.52,3530.19,3348.72,3646.61,350.36,344.25,0.79,0000 0000 0000 0000 000000
2015-06-22 02:44:10,0.02,0.01,0.00,22.61,23.73,27.57,4.68,24.23,1005.02,2055.58,3528.40,3347.00,3644.71,349.54,343.60,0.82,0000 0000 0000 0000 000000
2015-06-22 02:49:11,-0.01,0.01,0.00,22.52,23.95,27.60,4.76,24.24,1005.03,2054.54,3526.74,3345.40,3642.79,350.34,344.62,0.85,0000 0000 0000 0000 000000
2015-06-22 02:54:12,0.01,0.01,0.00,22.57,24.17,27.64,4.69,24.25,1005.21,2053.72,3525.49,3344.00,3641.17,349.94,344.23,0.88,0000 0000 0000 0000 000000
2015-06-22 02:59:14,0.01,0.01,0.00,22.69,24.36,27.74,4.68,24.32,1005.35,2052.82,3524.17,3342.54,3639.48,350.04,344.20,0.91,0000 0000 0000 0000 000000
2015-06-22 03:04:15,0.02,0.01,0.00,22.69,24.55,27.87,4.74,24.19,1005.39,2051.96,3522.79,3341.10,3637.82,350.41,344.66,0.94,0000 0000 0000 0000 000000
2015-06-22 03:09:16,-0.02,0.01,0.00,22.86,24.73,27.93,4.68,24.37,1005.39,2051.08,3521.66,3339.79,3636.43,350.17,344.06,0.97,0000 0000 0000 0000 000000
2015-06-22 03:14:18,-0.02,0.01,0.00,22.92,24.90,28.04,4.74,24.23,1005.40,2050.45,3520.45,3338.62,3634.98,350.52,344.46,1.00,0000 0000 0000 0000 000000
2015-06-22 03:19:19,-0.00,0.01,0.00,22.81,25.06,28.10,4.72,24.32,1005.40,2049.69,3519.23,3337.36,3633.51,349.99,344.24,1.03,0000 0000 0000 0000 000000
2015-06-22 03:24:20,0.03,0.01,0.00,22.82,25.20,28.20,4.70,24.25,1005.57,2049.03,3518.12,3336.25,3632.32,349.79,343.96,1.05,0000 0000 0000 0000 000000
2015-06-22 03:29:21,-0.03,0.01,0.00,22.73,25.34,28.30,4.75,24.06,1005.76,2048.48,3516.86,3335.16,3631.17,349.72,344.22,1.08,0000 0000 0000 0000 000000
2015-06-22 03:34:22,0.03,0.01,0.00,22.63,25.46,28.37,4.72,24.10,1005.86,2047.86,3516.01,3334.20,3629.96,349.88,344.37,1.11,0000 0000 0000 0000 000000
2015-06-22 03:39:23,-0.02,0.01,0.00,22.58,25.57,28.43,4.76,24.24,1005.87,2047.08,3515.17,3333.30,3628.79,350.16,344.43,1.14,0000 0000 0000 0000 000000
2015-06-22 03:44:25,0.08,0.01,0.00,22.70,25.67,28.47,4.72,24.05,1005.87,2047.00,3514.20,3332.39,3627.85,349.78,344.23,1.17,0000 0000 0000 0000 000000
2015-06-22 03:49:26,-0.06,0.01,0.00,22.75,25.77,28.55,4.71,24.07,1005.89,2046.48,3513.71,3331.67,3626.93,349.92,344.17,1.20,0000 0000 0000 0000 000000
2015-06-22 03:54:27,0.03,0.01,0.00,22.82,25.86,28.59,4.73,24.13,1005.92,2046.00,3512.92,3330.90,3626.04,350.12,344.26,1.23,0000 0000 0000 0000 000000
2015-06-22 03:59:28,-0.01,0.01,0.00,23.00,25.96,28.62,4.73,24.19,1005.99,2045.68,3512.10,3330.09,3625.19,350.23,344.28,1.26,0000 0000 0000 0000 000000
2015-06-22 04:04:29,0.01,0.01,0.00,23.11,26.06,28.71,4.64,24.04,1006.26,2045.03,3511.46,3329.32,3624.21,349.49,343.30,1.29,0000 0000 0000 0000 000000
2015-06-22 04:09:31,-0.01,0.01,0.00,23.00,26.15,28.77,4.69,24.15,1006.33,2044.74,3510.73,3328.61,3623.40,350.18,344.27,1.32,0000 0000 0000 0000 000000
2015-06-22 04:14:32,-0.03,0.01,0.00,23.01,26.23,28.86,4.69,24.00,1006.36,2044.04,3509.90,3327.95,3622.59,350.06,344.28,1.35,0000 0000 0000 0000 000000
2015-06-22 04:19:33,0.07,0.01,0.00,23.02,26.31,28.94,4.71,24.06,1006.36,2043.97,3509.08,3327.12,3621.76,350.42,344.30,1.38,0000 0000 0000 0000 000000
2015-06-22 04:24:34,-0.08,0.01,0.00,22.98,26.38,29.01,4.72,23.98,1006.36,2043.57,3508.88,3326.96,3621.06,349.98,344.21,1.41,0000 0000 0000 0000 000000
2015-06-22 04:29:36,0.02,0.01,0.00,22.95,26.45,29.10,4.69,23.94,1006.36,2043.02,3508.09,3326.23,3620.81,349.64,344.09,1.44,0000 0000 0000 0000 000000
2015-06-22 04:34:37,0.01,0.01,0.00,23.02,26.51,29.19,4.76,23.98,1006.36,2042.99,3507.97,3325.98,3620.05,350.75,344.83,1.47,0000 0000 0000 0000 000000
2015-06-22 04:39:38,0.00,0.01,0.00,23.00,26.56,29.25,4.74,24.04,1006.36,2042.63,3507.27,3325.26,3619.44,350.10,344.07,1.49,0000 0000 0000 0000 000000
2015-06-22 04:44:39,-0.05,0.01,0.00,23.17,26.62,29.18,4.77,24.17,1006.36,2042.09,3506.97,3324.99,3619.00,350.39,344.47,1.52,0000 0000 0000 0000 000000
2015-06-22 04:49:41,0.06,0.01,0.00,23.21,26.68,29.19,4.74,23.99,1006.36,2042.00,3506.43,3324.53,3618.64,350.46,344.32,1.55,0000 0000 0000 0000 000000
2015-06-22 04:54:42,0.01,0.01,0.00,23.11,26.73,29.28,4.76,23.95,1006.36,2041.96,3506.00,3324.01,3618.02,350.29,344.24,1.58,0000 0000 0000 0000 000000
2015-06-22 04:59:43,-0.02,0.01,0.00,23.11,26.78,29.37,4.79,23.95,1006.37,2041.66,3505.57,3323.83,3617.59,350.17,344.05,1.61,0000 0000 0000 0000 000000
2015-06-22 05:04:45,-0.01,0.01,0.00,23.02,26.83,29.48,4.69,23.95,1006.39,2041.11,3505.03,3323.13,3617.03,350.27,344.35,1.64,0000 0000 0000 0000 000000
2015-06-22 05:09:46,0.01,0.01,0.00,22.92,26.86,29.59,4.70,23.79,1006.38,2041.02,3504.80,3323.00,3616.95,349.69,343.86,1.67,0000 0000 0000 0000 000000
2015-06-22 05:14:47,0.06,0.01,0.00,22.83,26.89,29.72,4.73,23.82,1006.38,2040.99,3504.15,3322.66,3616.19,349.63,344.02,1.70,0000 0000 0000 0000 000000
2015-06-22 05:19:49,0.01,0.01,0.00,22.81,26.91,29.79,4.73,23.98,1006.37,2040.96,3503.99,3322.04,3615.99,350.04,344.50,1.73,0000 0000 0000 0000 000000
2015-06-22 05:24:50,-0.01,0.01,0.00,22.74,26.93,29.79,4.73,24.01,1006.39,2040.93,3503.99,3322.02,3615.98,349.63,343.91,1.76,0000 0000 0000 0000 000000
2015-06-22 05:29:51,-0.01,0.01,0.00,22.76,26.95,29.78,4.78,24.07,1006.41,2040.83,3503.99,3322.01,3615.82,350.90,345.37,1.79,0000 0000 0000 0000 000000
2015-06-22 05:34:53,-0.04,0.01,0.00,22.88,26.96,29.77,4.72,24.01,1006.41,2040.53,3503.98,3322.00,3615.42,349.82,344.28,1.82,0000 0000 0000 0000 000000
2015-06-22 05:39:54,-0.04,0.01,0.00,23.06,26.97,29.72,4.75,24.08,1006.45,2040.21,3503.77,3321.99,3615.04,350.11,344.11,1.85,0000 0000 0000 0000 000000
2015-06-22 05:44:55,0.02,0.01,0.00,23.14,27.00,29.73,4.73,24.08,1006.41,2040.06,3503.47,3321.86,3614.99,349.97,344.12,1.88,0000 0000 0000 0000 000000
2015-06-22 05:49:57,0.03,0.01,0.00,23.01,27.01,29.77,4.77,24.07,1006.45,2040.00,3503.06,3321.24,3614.90,350.50,344.49,1.90,0000 0000 0000 0000 000000
2015-06-22 05:54:58,0.01,0.01,0.00,23.04,27.02,29.72,4.78,24.02,1006.57,2040.00,3503.00,3321.02,3614.58,350.42,344.43,1.93,0000 0000 0000 0000 000000
2015-06-22 06:00:00,0.01,0.01,0.00,23.03,27.04,29.73,4.74,24.02,1006.81,2040.00,3502.97,3321.00,3614.10,349.79,343.91,1.96,0000 0000 0000 0000 000000
2015-06-22 06:05:01,0.00,0.01,0.00,22.96,27.05,29.79,4.68,23.92,1006.81,2040.00,3502.94,3321.00,3614.01,349.83,344.24,1.99,0000 0000 0000 0000 000000
2015-06-22 06:10:02,-0.00,0.01,0.00,22.91,27.05,29.79,4.78,24.06,1006.80,2039.97,3502.87,3320.99,3614.00,349.94,344.19,2.02,0000 0000 0000 0000 000000
2015-06-22 06:15:03,0.00,0.01,0.00,22.83,27.06,29.79,4.76,24.04,1006.83,2039.96,3502.87,3320.99,3613.99,349.87,344.48,2.05,0000 0000 0000 0000 000000
2015-06-22 06:20:05,0.01,0.01,0.00,22.82,27.07,29.79,4.69,24.12,1006.83,2039.90,3502.48,3320.98,3613.98,349.93,344.48,2.08,0000 0000 0000 0000 000000
2015-06-22 06:25:06,-0.03,0.01,0.00,22.80,27.07,29.78,4.79,24.11,1006.83,2039.77,3502.45,3320.97,3613.98,349.75,344.11,2.11,0000 0000 0000 0000 000000
2015-06-22 06:30:07,0.00,0.01,0.00,22.78,27.07,29.77,4.72,24.19,1006.83,2039.74,3502.56,3320.97,3613.96,349.82,344.40,2.14,0000 0000 0000 0000 000000
2015-06-22 06:35:08,-0.02,0.01,0.00,22.77,27.07,29.77,4.68,24.09,1006.84,2039.54,3502.18,3320.95,3613.94,349.67,344.36,2.17,0000 0000 0000 0000 000000
2015-06-22 06:40:09,0.01,0.01,0.00,22.73,27.06,29.75,4.73,24.08,1006.84,2039.52,3502.04,3320.95,3613.92,350.38,345.19,2.20,0000 0000 0000 0000 000000
2015-06-22 06:45:11,-0.02,0.01,0.00,22.75,27.05,29.72,4.68,23.98,1006.84,2039.45,3502.02,3320.81,3613.82,350.21,344.85,2.23,0000 0000 0000 0000 000000
2015-06-22 06:50:12,0.02,0.01,0.00,22.67,27.05,29.72,4.69,23.97,1006.85,2039.39,3502.01,3320.77,3613.74,349.72,344.63,2.26,0000 0000 0000 0000 000000
2015-06-22 06:55:14,0.00,0.01,0.00,22.73,27.05,29.69,4.74,23.92,1006.86,2039.53,3502.01,3320.87,3613.68,349.99,344.73,2.29,0000 0000 0000 0000 000000
2015-06-22 07:00:15,0.02,0.01,0.00,22.91,27.05,29.67,4.71,24.00,1006.88,2039.60,3502.06,3320.93,3613.78,350.33,344.69,2.31,0000 0000 0000 0000 000000
2015-06-22 07:05:16,-0.02,0.01,0.00,23.07,27.05,29.64,4.67,24.05,1006.93,2039.68,3502.25,3320.95,3613.82,349.73,344.11,2.34,0000 0000 0000 0000 000000
2015-06-22 07:10:17,-0.01,0.01,0.00,23.07,27.07,29.68,4.74,24.07,1007.01,2039.34,3502.07,3320.53,3613.29,350.41,344.88,2.37,0000 0000 0000 0000 000000
2015-06-22 07:15:18,-0.01,0.01,0.00,22.96,27.07,29.72,4.74,24.04,1007.23,2039.14,3502.00,3320.36,3613.07,349.87,344.34,2.40,0000 0000 0000 0000 000000
2015-06-22 07:20:19,-0.00,0.01,0.00,23.10,27.07,29.76,4.69,24.14,1007.27,2039.09,3502.00,3320.23,3613.05,349.41,344.02,2.43,0000 0000 0000 0000 000000
2015-06-22 07:25:20,0.01,0.01,0.00,23.25,27.10,29.75,4.74,24.09,1007.34,2039.17,3502.02,3320.43,3613.05,350.25,344.42,2.46,0000 0000 0000 0000 000000
2015-06-22 07:30:22,-0.00,0.01,0.00,23.20,27.11,29.81,4.78,24.13,1007.34,2039.09,3502.00,3320.16,3613.01,350.41,344.71,2.49,0000 0000 0000 0000 000000
2015-06-22 07:35:23,-0.00,0.01,0.00,22.99,27.12,29.81,4.60,24.04,1007.35,2039.03,3502.00,3320.03,3613.00,349.49,344.10,2.52,0000 0000 0000 0000 000000
2015-06-22 07:40:24,-0.00,0.01,0.00,22.96,27.12,29.87,4.75,23.93,1007.35,2039.03,3501.97,3320.03,3613.00,350.04,344.37,2.55,0000 0000 0000 0000 000000
2015-06-22 07:45:25,0.00,0.01,0.00,22.86,27.12,29.90,4.80,24.04,1007.35,2039.00,3501.95,3320.01,3613.00,349.96,344.78,2.58,0000 0000 0000 0000 000000
2015-06-22 07:50:27,0.00,0.01,0.00,22.82,27.13,29.88,4.72,23.98,1007.39,2039.00,3501.82,3320.00,3613.00,349.88,344.70,2.61,0000 0000 0000 0000 000000
2015-06-22 07:55:28,0.01,0.01,0.00,22.78,27.12,29.79,4.75,23.99,1007.45,2039.00,3501.57,3320.00,3612.97,350.30,345.06,2.64,0000 0000 0000 0000 000000
2015-06-22 08:00:30,0.00,0.01,0.00,22.74,27.12,29.77,4.79,23.82,1007.72,2039.00,3501.39,3320.00,3612.98,350.04,345.24,2.67,0000 0000 0000 0000 000000
2015-06-22 08:05:31,-0.01,0.01,0.00,22.70,27.12,29.75,4.73,23.98,1007.63,2039.00,3501.69,3320.00,3612.98,349.90,344.81,2.70,0000 0000 0000 0000 000000
2015-06-22 08:10:32,-0.00,0.01,0.00,22.70,27.12,29.74,4.73,23.95,1007.77,2039.01,3501.88,3320.02,3612.99,349.88,344.91,2.72,0000 0000 0000 0000 000000
2015-06-22 08:15:34,-0.00,0.01,0.00,22.67,27.11,29.70,4.67,23.85,1007.82,2039.01,3501.95,3320.02,3612.99,349.41,344.55,2.75,0000 0000 0000 0000 000000
2015-06-22 08:20:35,0.01,0.01,0.00,22.68,27.10,29.70,4.71,24.00,1007.81,2039.04,3501.74,3320.02,3612.99,350.22,345.26,2.78,0000 0000 0000 0000 000000
2015-06-22 08:25:36,-0.01,0.01,0.00,22.66,27.10,29.69,4.74,23.84,1007.82,2039.03,3501.94,3320.03,3612.99,350.35,345.26,2.81,0000 0000 0000 0000 000000
2015-06-22 08:30:37,-0.00,0.01,0.00,22.68,27.09,29.73,4.78,23.98,1007.83,2039.06,3501.91,3320.05,3612.99,350.08,345.10,2.84,0000 0000 0000 0000 000000
2015-06-22 08:35:39,0.00,0.01,0.00,22.69,27.07,29.72,4.75,23.88,1007.84,2039.03,3501.89,3320.06,3612.99,349.99,344.98,2.87,0000 0000 0000 0000 000000
2015-06-22 08:40:39,0.01,0.01,0.00,22.70,27.07,29.73,4.75,23.88,1007.84,2039.06,3501.89,3320.07,3612.99,349.73,344.83,2.90,0000 0000 0000 0000 000000
2015-06-22 08:45:40,-0.01,0.01,0.00,22.69,27.07,29.71,4.74,23.86,1007.83,2039.03,3501.81,3320.06,3612.99,350.36,345.37,2.93,0000 0000 0000 0000 000000
2015-06-22 08:50:41,0.00,0.01,0.00,22.69,27.05,29.64,4.69,23.77,1007.84,2039.07,3501.88,3320.09,3612.99,349.75,344.80,2.96,0000 0000 0000 0000 000000
2015-06-22 08:55:43,0.00,0.01,0.00,22.71,27.05,29.62,4.69,23.80,1007.85,2039.12,3501.89,3320.13,3612.99,349.92,344.95,2.99,0000 0000 0000 0000 000000
2015-06-22 09:00:44,0.00,0.01,0.00,22.72,27.05,29.68,4.79,23.84,1007.87,2039.17,3501.97,3320.26,3612.99,349.79,344.82,3.02,0000 0000 0000 0000 000000
2015-06-22 09:05:45,0.01,0.01,0.00,22.71,27.04,29.67,4.74,23.84,1007.85,2039.24,3501.95,3320.30,3612.99,349.92,344.92,3.05,0000 0000 0000 0000 000000
2015-06-22 09:10:46,0.01,0.01,0.00,22.71,27.03,29.69,4.66,23.82,1007.88,2039.29,3501.97,3320.48,3612.99,350.11,344.90,3.08,0000 0000 0000 0000 000000
2015-06-22 09:15:48,-0.01,0.01,0.00,22.73,27.02,29.69,4.71,23.82,1008.03,2039.26,3501.96,3320.44,3612.99,349.81,344.83,3.11,0000 0000 0000 0000 000000
2015-06-22 09:20:49,0.01,0.01,0.00,22.73,27.02,29.69,4.74,23.76,1008.27,2039.23,3501.76,3320.29,3613.00,350.02,345.19,3.13,0000 0000 0000 0000 000000
2015-06-22 09:25:50,-0.00,0.01,0.00,22.75,27.02,29.68,4.76,23.85,1008.21,2039.40,3501.94,3320.67,3613.01,350.36,345.55,3.16,0000 0000 0000 0000 000000
2015-06-22 09:30:51,0.03,0.01,0.00,22.75,27.02,29.67,4.73,23.64,1008.30,2039.50,3501.88,3320.58,3613.00,349.87,345.01,3.19,0000 0000 0000 0000 000000
2015-06-22 09:44:05,0.00,0.00,0.00,22.32,27.04,27.37,4.12,23.48,1007.79,1838.39,3153.75,2995.66,3264.54,305.84,302.02,0.00,0000 0000 0000 0000 000000
2015-06-22 09:49:06,0.00,0.00,0.00,22.52,27.01,28.40,4.65,26.61,1007.95,2040.06,3497.58,3323.86,3622.12,349.07,344.42,0.03,0000 0000 0000 0000 000000
2015-06-22 09:54:07,0.00,0.00,0.00,22.69,26.99,28.89,4.73,26.64,1008.15,2039.99,3496.98,3323.07,3621.04,349.69,344.84,0.06,0000 0000 0000 0000 000000
2015-06-22 09:59:09,0.00,0.00,0.00,22.80,26.97,29.16,4.71,26.73,1008.29,2039.99,3496.52,3323.02,3620.96,349.79,344.88,0.09,0000 0000 0000 0000 000000
2015-06-22 10:04:10,0.01,0.00,0.00,23.07,26.98,29.33,4.73,26.69,1008.31,2039.96,3496.03,3323.00,3620.21,349.55,344.51,0.12,0000 0000 0000 0000 000000
2015-06-22 10:09:11,0.00,0.00,0.00,23.25,27.01,29.26,4.67,26.60,1008.32,2039.87,3495.99,3322.94,3620.00,350.21,344.82,0.15,0000 0000 0000 0000 000000
2015-06-22 10:14:12,-0.01,0.00,0.00,23.24,27.03,29.31,4.71,26.52,1008.33,2039.38,3495.49,3322.19,3619.55,349.92,344.38,0.18,0000 0000 0000 0000 000000
2015-06-22 10:19:14,-0.01,0.00,0.00,23.31,27.07,29.42,4.72,26.43,1008.34,2039.11,3495.04,3322.01,3619.04,349.57,344.01,0.21,0000 0000 0000 0000 000000
2015-06-22 10:24:15,0.00,0.00,0.00,23.42,27.10,29.52,4.77,26.26,1008.43,2039.05,3494.99,3321.99,3618.98,350.18,344.53,0.23,0000 0000 0000 0000 000000
2015-06-22 10:29:16,0.04,0.00,0.00,23.45,27.14,29.61,4.68,26.23,1008.47,2039.00,3494.56,3321.89,3618.48,349.80,344.30,0.26,0000 0000 0000 0000 000000
2015-06-22 10:34:17,0.02,0.00,0.00,23.45,27.17,29.67,4.73,26.19,1008.64,2039.00,3494.08,3321.61,3618.05,350.09,344.52,0.29,0000 0000 0000 0000 000000
2015-06-22 10:39:18,0.02,0.00,0.00,23.44,27.20,29.73,4.67,26.23,1008.70,2039.00,3494.01,3321.13,3617.99,349.63,344.08,0.32,0000 0000 0000 0000 000000
2015-06-22 10:44:19,0.00,0.00,0.00,23.42,27.22,29.79,4.86,26.22,1008.77,2039.00,3493.99,3321.04,3617.98,350.49,344.98,0.35,0000 0000 0000 0000 000000
2015-06-22 10:49:21,0.01,0.00,0.00,23.42,27.25,29.83,4.70,26.07,1008.80,2038.99,3493.93,3321.00,3617.80,349.74,344.10,0.38,0000 0000 0000 0000 000000
2015-06-22 10:54:22,0.03,0.00,0.00,23.40,27.27,29.87,4.77,26.01,1008.81,2038.97,3493.46,3321.00,3617.21,350.32,344.83,0.41,0000 0000 0000 0000 000000
2015-06-22 10:59:23,0.01,0.00,0.00,23.39,27.29,29.88,4.79,26.12,1008.81,2038.94,3493.03,3320.95,3617.01,350.63,345.16,0.44,0000 0000 0000 0000 000000
2015-06-22 11:04:25,-0.01,0.00,0.00,23.39,27.31,29.90,4.71,26.07,1008.83,2038.74,3493.00,3320.57,3616.99,349.81,344.39,0.47,0000 0000 0000 0000 000000
2015-06-22 11:09:26,-0.05,0.00,0.00,23.38,27.32,29.92,4.71,26.16,1008.90,2038.39,3492.99,3320.19,3616.84,350.10,344.58,0.50,0000 0000 0000 0000 000000
2015-06-22 11:14:28,0.01,0.00,0.00,23.37,27.34,29.93,4.72,26.16,1008.95,2038.17,3492.95,3320.01,3616.31,350.09,344.76,0.53,0000 0000 0000 0000 000000
2015-06-22 11:19:29,-0.00,0.00,0.00,23.37,27.35,29.94,4.78,26.07,1009.01,2038.11,3492.67,3320.00,3616.08,350.26,344.71,0.56,0000 0000 0000 0000 000000
2015-06-22 11:24:30,0.00,0.00,0.00,23.36,27.36,29.96,4.71,26.13,1008.97,2038.05,3492.25,3320.00,3616.01,349.57,344.35,0.59,0000 0000 0000 0000 000000
2015-06-22 11:29:31,-0.00,0.00,0.00,23.36,27.37,29.97,4.67,26.14,1008.90,2038.02,3492.04,3319.99,3615.98,349.88,344.35,0.62,0000 0000 0000 0000 000000
2015-06-22 11:34:32,0.00,0.00,0.00,23.35,27.37,30.02,4.72,26.18,1008.84,2038.00,3492.01,3319.97,3615.96,350.24,345.03,0.65,0000 0000 0000 0000 000000
2015-06-22 11:39:34,0.00,0.00,0.00,23.35,27.39,30.05,4.76,26.30,1008.84,2038.00,3492.00,3319.95,3615.86,349.75,344.29,0.67,0000 0000 0000 0000 000000
2015-06-22 11:44:35,0.01,0.00,0.00,23.34,27.40,30.08,4.74,26.19,1008.83,2038.00,3491.99,3319.88,3615.65,349.63,344.29,0.70,0000 0000 0000 0000 000000
2015-06-22 11:49:36,0.02,0.00,0.00,23.30,27.40,30.08,4.71,26.16,1009.04,2038.00,3491.97,3319.65,3615.21,349.85,344.49,0.73,0000 0000 0000 0000 000000
2015-06-22 11:54:38,0.02,0.00,0.00,23.30,27.40,30.13,4.67,26.07,1009.26,2038.00,3491.91,3319.31,3615.05,349.88,344.47,0.76,0000 0000 0000 0000 000000
2015-06-22 11:59:39,0.01,0.00,0.00,23.30,27.40,30.18,4.76,26.23,1009.20,2038.00,3491.77,3319.15,3615.00,350.22,345.12,0.79,0000 0000 0000 0000 000000
2015-06-22 12:04:40,0.01,0.00,0.00,23.29,27.41,30.20,4.75,26.14,1009.26,2038.00,3491.18,3319.03,3615.00,350.09,344.93,0.82,0000 0000 0000 0000 000000
2015-06-22 12:09:41,0.00,0.00,0.00,23.27,27.42,30.23,4.71,26.13,1009.26,2038.00,3491.10,3319.00,3614.99,349.97,344.71,0.85,0000 0000 0000 0000 000000
2015-06-22 12:14:43,0.00,0.00,0.00,23.27,27.42,30.20,4.63,26.06,1009.28,2038.00,3491.02,3319.02,3614.98,349.67,344.56,0.88,0000 0000 0000 0000 000000
2015-06-22 12:19:44,0.00,0.00,0.00,23.27,27.42,30.14,4.68,26.10,1009.26,2038.00,3491.01,3319.01,3614.98,350.17,345.16,0.91,0000 0000 0000 0000 000000
2015-06-22 12:24:45,0.00,0.00,0.00,23.28,27.42,30.16,4.72,25.99,1009.29,2038.00,3491.00,3319.00,3614.97,349.93,344.68,0.94,0000 0000 0000 0000 000000
2015-06-22 12:29:47,0.00,0.00,0.00,23.29,27.42,30.19,4.73,26.03,1009.29,2038.00,3491.00,3319.00,3614.94,349.87,344.78,0.97,0000 0000 0000 0000 000000
2015-06-22 12:34:48,0.00,0.00,0.00,23.28,27.42,30.19,4.75,26.02,1009.30,2038.00,3491.00,3319.00,3614.82,349.92,344.68,1.00,0000 0000 0000 0000 000000
2015-06-22 12:39:49,0.01,0.00,0.00,23.27,27.42,30.22,4.74,26.14,1009.31,2038.00,3490.99,3318.99,3614.55,350.10,344.65,1.03,0000 0000 0000 0000 000000
2015-06-22 12:44:50,-0.01,0.00,0.00,23.29,27.42,30.22,4.70,26.12,1009.30,2038.00,3490.99,3318.99,3614.69,349.54,344.53,1.05,0000 0000 0000 0000 000000
2015-06-22 12:49:52,0.01,0.00,0.00,23.30,27.42,30.17,4.74,26.07,1009.31,2038.00,3490.99,3318.99,3614.57,350.01,344.61,1.08,0000 0000 0000 0000 000000
2015-06-22 12:54:53,0.00,0.00,0.00,23.29,27.42,30.19,4.72,26.19,1009.29,2038.00,3490.98,3318.99,3614.45,349.79,344.63,1.11,0000 0000 0000 0000 000000
2015-06-22 12:59:54,0.01,0.00,0.00,23.28,27.42,30.17,4.75,26.06,1009.30,2038.00,3490.96,3318.98,3614.18,350.04,344.90,1.14,0000 0000 0000 0000 000000
2015-06-22 13:04:55,0.01,0.00,0.00,23.28,27.42,30.14,4.67,25.95,1009.33,2038.00,3490.62,3318.97,3614.05,349.89,344.65,1.17,0000 0000 0000 0000 000000
2015-06-22 13:09:57,0.00,0.00,0.00,23.30,27.42,30.16,4.73,25.91,1009.34,2038.00,3490.53,3318.96,3614.01,350.03,344.95,1.20,0000 0000 0000 0000 000000
2015-06-22 13:14:58,0.01,0.00,0.00,23.29,27.41,30.14,4.74,25.93,1009.30,2037.99,3490.32,3318.96,3614.00,349.99,344.89,1.23,0000 0000 0000 0000 000000
2015-06-22 13:20:00,-0.00,0.00,0.00,23.29,27.41,30.23,4.71,25.93,1009.30,2037.99,3490.36,3318.94,3614.00,350.20,344.99,1.26,0000 0000 0000 0000 000000
2015-06-22 13:25:01,0.01,0.00,0.00,23.28,27.41,30.20,4.71,25.94,1009.30,2037.99,3490.17,3318.90,3614.00,349.62,344.64,1.29,0000 0000 0000 0000 000000
2015-06-22 13:30:02,-0.00,0.00,0.00,23.29,27.41,30.15,4.73,25.84,1009.31,2037.99,3490.22,3318.94,3614.00,349.79,344.58,1.32,0000 0000 0000 0000 000000
2015-06-22 13:35:03,0.00,0.00,0.00,23.31,27.41,30.19,4.78,25.87,1009.33,2037.99,3490.17,3318.91,3614.00,349.84,344.89,1.35,0000 0000 0000 0000 000000